Flag for U.S.A. Weather past 2 weeks in New York, New York, U.S.A.

Now
58 °F

Passing clouds.


Feels Like: 58 °F
Forecast: 60 / 75 °F
Wind: No wind

Location: New York City - Central Park

Current Time: Sep 20, 2014 at 4:52:44 AM

Latest Report: Sep 20, 2014 at 3:51 AM


Visibility: 10 mi

Pressure: 30.32 "Hg

Humidity: 75%

Dew point: 50 °F

Location of New YorkLocation

Historic Weather in New York — Graph

°F

New York temperature yesterday

Maximum temperature yesterday: 66 °F (at 2:51 PM)
Minimum temperature yesterday: 54 °F (at 7:51 AM)
Average temperature yesterday: 61 °F

Past Weeks' High & Low Weather Summary

 TemperatureHumidityPressure
High90 °F (Sep 6, 1:51 PM)93% (Sep 13, 3:51 PM)30.38 "Hg (Sep 13, 3:51 PM)
Low53 °F (Sep 14, 6:51 AM)31% (Sep 18, 5:51 PM)29.81 "Hg (Sep 11, 3:51 PM)
Average68 °F62%30.10 "Hg
* Reported Sep 5 3:51 AM — Sep 20 3:51 AM, New York, Weather by CustomWeather, © 2014

Note: Actual official high and low records may vary slightly from our data, if they occured in-between our weather recording intervals... More about our weather records

Advertising

New York weather history for previous 24 hours

 ConditionsComfort  
Time TempWeatherWind HumidityBarometerVisibility
3:51 AM
Sep 20
58 °FPassing clouds.No wind75%30.32 "Hg10 mi
2:51 AM59 °FPassing clouds.No wind69%30.32 "Hg10 mi
1:51 AM59 °FClear.3 mph67%30.32 "Hg10 mi
12:51 AM60 °FClear.5 mph62%30.33 "Hg10 mi
11:51 PM
Sep 19
60 °FClear.3 mph60%30.35 "Hg10 mi
10:51 PM61 °FPassing clouds.7 mph58%30.37 "Hg10 mi
9:51 PM61 °FOvercast.8 mph58%30.38 "Hg10 mi
8:51 PM60 °FPassing clouds.3 mph60%30.37 "Hg10 mi
7:51 PM61 °FPartly sunny.5 mph58%30.37 "Hg10 mi
6:51 PM62 °FOvercast.5 mph58%30.34 "Hg10 mi
5:51 PM63 °FSunny.7 mph50%30.33 "Hg10 mi
4:51 PM64 °FSunny.9 mph49%30.33 "Hg10 mi
3:51 PM65 °FSunny.8 mph47%30.34 "Hg10 mi
2:51 PM66 °FSunny.7 mph45%30.34 "Hg10 mi
1:51 PM64 °FPassing clouds.7 mph47%30.35 "Hg10 mi
12:51 PM63 °FSunny.9 mph48%30.35 "Hg10 mi
11:51 AM62 °FScattered clouds.8 mph50%30.34 "Hg10 mi
10:51 AM59 °FPartly sunny.14 mph54%30.34 "Hg10 mi
9:51 AM57 °FPassing clouds.9 mph53%30.33 "Hg10 mi
8:51 AM56 °FSunny.13 mph49%30.32 "Hg10 mi
7:51 AM54 °FSunny.10 mph53%30.29 "Hg10 mi
6:51 AM56 °FOvercast.12 mph65%30.27 "Hg10 mi
6:02 AM57 °FPassing clouds.10 mph72%30.26 "Hg10 mi
4:51 AM59 °FClear.9 mph67%30.20 "Hg10 mi
Weather by CustomWeather, © 2014

See weather overviewHow to use our weather pages